owner,sensor,date,latitude,longitude,vertical_datum,direction_of_sea_water_velocity,sea_water_speed,upward_sea_water_velocity,qcFlag 
TABS,ioos:station:wmo:42050:1,2001-01-01T00:00:00Z,28.8425,-94.2433,2.0,0.000210459,0.3,-99999.0,'11133222,11111222,99999999' 
TABS,ioos:station:wmo:42050:1,2001-01-01T00:30:00Z,28.8425,-94.2433,2.0,18.43511617,0.474341649,-99999.0,'11133222,11111222,99999999' 
TABS,ioos:station:wmo:42050:1,2001-01-01T01:00:00Z,28.8425,-94.2433,2.0,0.000210459,0.3,-99999.0,'11133222,11111222,99999999' 
TABS,ioos:station:wmo:42050:1,2001-01-01T01:30:00Z,28.8425,-94.2433,2.0,0.000210459,0.15,-99999.0,'11133222,11111222,99999999' 
TABS,ioos:station:wmo:42050:1,2001-01-01T02:00:00Z,28.8425,-94.2433,2.0,0.000210459,0.15,-99999.0,'11133222,11111222,99999999' 
TABS,ioos:station:wmo:42050:1,2001-01-01T02:30:00Z,28.8425,-94.2433,2.0,0.000210459,0.3,-99999.0,'11133222,11111222,99999999' 
TABS,ioos:station:wmo:42050:1,2001-01-01T03:00:00Z,28.8425,-94.2433,2.0,18.43511617,0.474341649,-99999.0,'11133222,11111222,99999999' 
TABS,ioos:station:wmo:42050:1,2001-01-01T03:30:00Z,28.8425,-94.2433,2.0,0.000210459,0.15,-99999.0,'11133222,11111222,99999999' 
TABS,ioos:station:wmo:42050:1,2001-01-01T04:00:00Z,28.8425,-94.2433,2.0,341.5653047,0.474341649,-99999.0,'11133222,11111222,99999999' 
TABS,ioos:station:wmo:42050:1,2001-01-01T04:30:00Z,28.8425,-94.2433,2.0,0.000210459,0.3,-99999.0,'11133222,11111222,99999999' 
TABS,ioos:station:wmo:42050:1,2001-01-01T05:00:00Z,28.8425,-94.2433,2.0,0.000210459,0.45,-99999.0,'11133222,11111222,99999999' 
TABS,ioos:station:wmo:42050:1,2001-01-01T05:30:00Z,28.8425,-94.2433,2.0,0.000210459,0.45,-99999.0,'11133222,11111222,99999999' 
TABS,ioos:station:wmo:42050:1,2001-01-01T06:00:00Z,28.8425,-94.2433,2.0,0.000210459,0.45,-99999.0,'11133222,11111222,99999999' 
TABS,ioos:station:wmo:42050:1,2001-01-01T06:30:00Z,28.8425,-94.2433,2.0,0.000210459,0.15,-99999.0,'11133222,11111222,99999999' 
TABS,ioos:station:wmo:42050:1,2001-01-01T07:00:00Z,28.8425,-94.2433,2.0,0.000210459,0.6,-99999.0,'11133222,11111222,99999999' 
TABS,ioos:station:wmo:42050:1,2001-01-01T07:30:00Z,28.8425,-94.2433,2.0,0.000210459,0.6,-99999.0,'11133222,11111222,99999999' 
TABS,ioos:station:wmo:42050:1,2001-01-01T08:00:00Z,28.8425,-94.2433,2.0,303.6904097,0.540832691,-99999.0,'11133222,11111222,99999999' 
TABS,ioos:station:wmo:42050:1,2001-01-01T08:30:00Z,28.8425,-94.2433,2.0,0.000210459,0.3,-99999.0,'11133222,11111222,99999999' 
TABS,ioos:station:wmo:42050:1,2001-01-01T09:00:00Z,28.8425,-94.2433,2.0,333.4352214,0.670820393,-99999.0,'11133222,11111222,99999999' 
TABS,ioos:station:wmo:42050:1,2001-01-01T09:30:00Z,28.8425,-94.2433,2.0,296.56541,0.335410197,-99999.0,'11133222,11111222,99999999' 
TABS,ioos:station:wmo:42050:1,2001-01-01T10:00:00Z,28.8425,-94.2433,2.0,296.56541,0.335410197,-99999.0,'11133222,11111222,99999999' 
TABS,ioos:station:wmo:42050:1,2001-01-01T10:30:00Z,28.8425,-94.2433,2.0,315.0003157,0.848528137,-99999.0,'11133222,11111222,99999999' 
TABS,ioos:station:wmo:42050:1,2001-01-01T11:00:00Z,28.8425,-94.2433,2.0,333.4352214,0.670820393,-99999.0,'11133222,11111222,99999999' 
TABS,ioos:station:wmo:42050:1,2001-01-01T11:30:00Z,28.8425,-94.2433,2.0,296.56541,0.335410197,-99999.0,'11133222,11111222,99999999' 
TABS,ioos:station:wmo:42050:1,2001-01-01T12:00:00Z,28.8425,-94.2433,2.0,333.4352214,0.670820393,-99999.0,'11133222,11111222,99999999' 
TABS,ioos:station:wmo:42050:1,2001-01-01T12:30:00Z,28.8425,-94.2433,2.0,333.2429549,1.332704018,-99999.0,'11133222,11111222,99999999' 
TABS,ioos:station:wmo:42050:1,2001-01-01T13:00:00Z,28.8425,-94.2433,2.0,326.3102217,0.540832691,-99999.0,'11133222,11111222,99999999' 
TABS,ioos:station:wmo:42050:1,2001-01-01T13:30:00Z,28.8425,-94.2433,2.0,315.0003157,0.636396103,-99999.0,'11133222,11111222,99999999' 
TABS,ioos:station:wmo:42050:1,2001-01-01T14:00:00Z,28.8425,-94.2433,2.0,333.4352214,0.335410197,-99999.0,'11133222,11111222,99999999' 
TABS,ioos:station:wmo:42050:1,2001-01-01T14:30:00Z,28.8425,-94.2433,2.0,315.0003157,0.212132034,-99999.0,'11133222,11111222,99999999' 
TABS,ioos:station:wmo:42050:1,2001-01-01T15:00:00Z,28.8425,-94.2433,2.0,296.56541,0.335410197,-99999.0,'11133222,11111222,99999999' 
TABS,ioos:station:wmo:42050:1,2001-01-01T15:30:00Z,28.8425,-94.2433,2.0,333.4352214,0.335410197,-99999.0,'11133222,11111222,99999999' 
TABS,ioos:station:wmo:42050:1,2001-01-01T16:00:00Z,28.8425,-94.2433,2.0,315.0003157,0.212132034,-99999.0,'11133222,11111222,99999999' 
TABS,ioos:station:wmo:42050:1,2001-01-01T16:30:00Z,28.8425,-94.2433,2.0,296.56541,0.335410197,-99999.0,'11133222,11111222,99999999' 
TABS,ioos:station:wmo:42050:1,2001-01-01T17:00:00Z,28.8425,-94.2433,2.0,315.0003157,0.424264069,-99999.0,'11133222,11111222,99999999' 
TABS,ioos:station:wmo:42050:1,2001-01-01T17:30:00Z,28.8425,-94.2433,2.0,315.0003157,0.424264069,-99999.0,'11133222,11111222,99999999' 
TABS,ioos:station:wmo:42050:1,2001-01-01T18:00:00Z,28.8425,-94.2433,2.0,333.4352214,0.335410197,-99999.0,'11133222,11111222,99999999' 
TABS,ioos:station:wmo:42050:1,2001-01-01T18:30:00Z,28.8425,-94.2433,2.0,333.4352214,0.335410197,-99999.0,'11133222,11111222,99999999' 
TABS,ioos:station:wmo:42050:1,2001-01-01T19:00:00Z,28.8425,-94.2433,2.0,326.3102217,0.540832691,-99999.0,'11133222,11111222,99999999' 
TABS,ioos:station:wmo:42050:1,2001-01-01T19:30:00Z,28.8425,-94.2433,2.0,296.56541,0.335410197,-99999.0,'11133222,11111222,99999999' 
TABS,ioos:station:wmo:42050:1,2001-01-01T20:00:00Z,28.8425,-94.2433,2.0,315.0003157,0.636396103,-99999.0,'11133222,11111222,99999999' 
TABS,ioos:station:wmo:42050:1,2001-01-01T20:30:00Z,28.8425,-94.2433,2.0,348.5414849,0.755049667,-99999.0,'11133222,11111222,99999999' 
TABS,ioos:station:wmo:42050:1,2001-01-01T21:00:00Z,28.8425,-94.2433,2.0,315.0003157,0.212132034,-99999.0,'11133222,11111222,99999999' 
TABS,ioos:station:wmo:42050:1,2001-01-01T21:30:00Z,28.8425,-94.2433,2.0,0.000210459,0.45,-99999.0,'11133222,11111222,99999999' 
TABS,ioos:station:wmo:42050:1,2001-01-01T22:00:00Z,28.8425,-94.2433,2.0,270.0004209,0.3,-99999.0,'11133222,11111222,99999999' 
TABS,ioos:station:wmo:42050:1,2001-01-01T22:30:00Z,28.8425,-94.2433,2.0,303.6904097,0.540832691,-99999.0,'11133222,11111222,99999999' 
TABS,ioos:station:wmo:42050:1,2001-01-01T23:00:00Z,28.8425,-94.2433,2.0,315.0003157,0.212132034,-99999.0,'11133222,11111222,99999999' 
TABS,ioos:station:wmo:42050:1,2001-01-01T23:30:00Z,28.8425,-94.2433,2.0,288.4353266,0.474341649,-99999.0,'11133222,11111222,99999999' 
TABS,ioos:station:wmo:42050:1,2001-01-02T00:00:00Z,28.8425,-94.2433,2.0,315.0003157,0.212132034,-99999.0,'11133222,11111222,99999999' 
TABS,ioos:station:wmo:42050:1,2001-01-02T00:30:00Z,28.8425,-94.2433,2.0,303.6904097,0.540832691,-99999.0,'11133222,11111222,99999999' 
TABS,ioos:station:wmo:42050:1,2001-01-02T01:00:00Z,28.8425,-94.2433,2.0,315.0003157,0.424264069,-99999.0,'11133222,11111222,99999999' 
TABS,ioos:station:wmo:42050:1,2001-01-02T01:30:00Z,28.8425,-94.2433,2.0,326.3102217,0.540832691,-99999.0,'11133222,11111222,99999999' 
TABS,ioos:station:wmo:42050:1,2001-01-02T02:00:00Z,28.8425,-94.2433,2.0,315.0003157,0.212132034,-99999.0,'11133222,11111222,99999999' 
TABS,ioos:station:wmo:42050:1,2001-01-02T02:30:00Z,28.8425,-94.2433,2.0,333.4352214,0.335410197,-99999.0,'11133222,11111222,99999999' 
TABS,ioos:station:wmo:42050:1,2001-01-02T03:00:00Z,28.8425,-94.2433,2.0,326.3102217,0.540832691,-99999.0,'11133222,11111222,99999999' 
TABS,ioos:station:wmo:42050:1,2001-01-02T03:30:00Z,28.8425,-94.2433,2.0,326.3102217,0.540832691,-99999.0,'11133222,11111222,99999999' 
TABS,ioos:station:wmo:42050:1,2001-01-02T04:00:00Z,28.8425,-94.2433,2.0,315.0003157,0.424264069,-99999.0,'11133222,11111222,99999999' 
TABS,ioos:station:wmo:42050:1,2001-01-02T04:30:00Z,28.8425,-94.2433,2.0,288.4353266,0.474341649,-99999.0,'11133222,11111222,99999999' 
TABS,ioos:station:wmo:42050:1,2001-01-02T05:00:00Z,28.8425,-94.2433,2.0,341.5653047,0.474341649,-99999.0,'11133222,11111222,99999999' 
TABS,ioos:station:wmo:42050:1,2001-01-02T05:30:00Z,28.8425,-94.2433,2.0,315.0003157,0.636396103,-99999.0,'11133222,11111222,99999999' 
TABS,ioos:station:wmo:42050:1,2001-01-02T06:00:00Z,28.8425,-94.2433,2.0,315.0003157,0.424264069,-99999.0,'11133222,11111222,99999999' 
TABS,ioos:station:wmo:42050:1,2001-01-02T06:30:00Z,28.8425,-94.2433,2.0,315.0003157,0.424264069,-99999.0,'11133222,11111222,99999999' 
TABS,ioos:station:wmo:42050:1,2001-01-02T07:00:00Z,28.8425,-94.2433,2.0,323.130399,0.75,-99999.0,'11133222,11111222,99999999' 
TABS,ioos:station:wmo:42050:1,2001-01-02T07:30:00Z,28.8425,-94.2433,2.0,341.3723908,0.939201789,-99999.0,'11133222,11111222,99999999' 
TABS,ioos:station:wmo:42050:1,2001-01-02T08:00:00Z,28.8425,-94.2433,2.0,328.6961602,0.866083137,-99999.0,'11133222,11111222,99999999' 
TABS,ioos:station:wmo:42050:1,2001-01-02T08:30:00Z,28.8425,-94.2433,2.0,328.1249222,1.401320806,-99999.0,'11133222,11111222,99999999' 
TABS,ioos:station:wmo:42050:1,2001-01-02T09:00:00Z,28.8425,-94.2433,2.0,315.0003157,0.424264069,-99999.0,'11133222,11111222,99999999' 
TABS,ioos:station:wmo:42050:1,2001-01-02T09:30:00Z,28.8425,-94.2433,2.0,321.3874178,1.906882272,-99999.0,'11133222,11111222,99999999' 
TABS,ioos:station:wmo:42050:1,2001-01-02T10:00:00Z,28.8425,-94.2433,2.0,315.0003157,0.848528137,-99999.0,'11133222,11111222,99999999' 
TABS,ioos:station:wmo:42050:1,2001-01-02T10:30:00Z,28.8425,-94.2433,2.0,330.0186412,1.200666482,-99999.0,'11133222,11111222,99999999' 
TABS,ioos:station:wmo:42050:1,2001-01-02T11:00:00Z,28.8425,-94.2433,2.0,315.0003157,1.470782105,-99999.0,'11133222,11111222,99999999' 
TABS,ioos:station:wmo:42050:1,2001-01-02T11:30:00Z,28.8425,-94.2433,2.0,330.0186412,1.200666482,-99999.0,'11133222,11111222,99999999' 
TABS,ioos:station:wmo:42050:1,2001-01-02T12:00:00Z,28.8425,-94.2433,2.0,315.0003157,0.848528137,-99999.0,'11133222,11111222,99999999' 
TABS,ioos:station:wmo:42050:1,2001-01-02T12:30:00Z,28.8425,-94.2433,2.0,320.2581126,1.157454103,-99999.0,'11133222,11111222,99999999' 
TABS,ioos:station:wmo:42050:1,2001-01-02T13:00:00Z,28.8425,-94.2433,2.0,336.6025013,1.133181362,-99999.0,'11133222,11111222,99999999' 
TABS,ioos:station:wmo:42050:1,2001-01-02T13:30:00Z,28.8425,-94.2433,2.0,320.2581126,1.157454103,-99999.0,'11133222,11111222,99999999' 
TABS,ioos:station:wmo:42050:1,2001-01-02T14:00:00Z,28.8425,-94.2433,2.0,319.4444114,1.368831619,-99999.0,'11133222,11111222,99999999' 
TABS,ioos:station:wmo:42050:1,2001-01-02T14:30:00Z,28.8425,-94.2433,2.0,321.3874178,1.906882272,-99999.0,'11133222,11111222,99999999' 
TABS,ioos:station:wmo:42050:1,2001-01-02T15:00:00Z,28.8425,-94.2433,2.0,311.9662831,2.003921156,-99999.0,'11133222,11111222,99999999' 
TABS,ioos:station:wmo:42050:1,2001-01-02T15:30:00Z,28.8425,-94.2433,2.0,311.1521452,1.580411339,-99999.0,'11133222,11111222,99999999' 
TABS,ioos:station:wmo:42050:1,2001-01-02T16:00:00Z,28.8425,-94.2433,2.0,318.0343482,2.003921156,-99999.0,'11133222,11111222,99999999' 
TABS,ioos:station:wmo:42050:1,2001-01-02T16:30:00Z,28.8425,-94.2433,2.0,306.7931185,1.486001346,-99999.0,'11133222,11111222,99999999' 
TABS,ioos:station:wmo:42050:1,2001-01-02T17:00:00Z,28.8425,-94.2433,2.0,315.0003157,1.895046174,-99999.0,'11133222,11111222,99999999' 
TABS,ioos:station:wmo:42050:1,2001-01-02T17:30:00Z,28.8425,-94.2433,2.0,317.7440142,2.215784286,-99999.0,'11133222,11111222,99999999' 
TABS,ioos:station:wmo:42050:1,2001-01-02T18:00:00Z,28.8425,-94.2433,2.0,315.0003157,1.682914139,-99999.0,'11133222,11111222,99999999' 
TABS,ioos:station:wmo:42050:1,2001-01-02T18:30:00Z,28.8425,-94.2433,2.0,329.1497587,1.735569071,-99999.0,'11133222,11111222,99999999' 
TABS,ioos:station:wmo:42050:1,2001-01-02T19:00:00Z,28.8425,-94.2433,2.0,331.0910944,1.530751449,-99999.0,'11133222,11111222,99999999' 
TABS,ioos:station:wmo:42050:1,2001-01-02T19:30:00Z,28.8425,-94.2433,2.0,333.178292,0.997296345,-99999.0,'11133222,11111222,99999999' 
TABS,ioos:station:wmo:42050:1,2001-01-02T20:00:00Z,28.8425,-94.2433,2.0,320.2581126,1.157454103,-99999.0,'11133222,11111222,99999999' 
TABS,ioos:station:wmo:42050:1,2001-01-02T20:30:00Z,28.8425,-94.2433,2.0,303.9865086,1.073359213,-99999.0,'11133222,11111222,99999999' 
TABS,ioos:station:wmo:42050:1,2001-01-02T21:00:00Z,28.8425,-94.2433,2.0,315.0003157,1.682914139,-99999.0,'11133222,11111222,99999999' 
TABS,ioos:station:wmo:42050:1,2001-01-02T21:30:00Z,28.8425,-94.2433,2.0,323.2075129,1.486001346,-99999.0,'11133222,11111222,99999999' 
TABS,ioos:station:wmo:42050:1,2001-01-02T22:00:00Z,28.8425,-94.2433,2.0,323.130399,0.75,-99999.0,'11133222,11111222,99999999' 
TABS,ioos:station:wmo:42050:1,2001-01-02T22:30:00Z,28.8425,-94.2433,2.0,333.4352214,0.670820393,-99999.0,'11133222,11111222,99999999' 
TABS,ioos:station:wmo:42050:1,2001-01-02T23:00:00Z,28.8425,-94.2433,2.0,320.9647888,0.952680429,-99999.0,'11133222,11111222,99999999' 
TABS,ioos:station:wmo:42050:1,2001-01-02T23:30:00Z,28.8425,-94.2433,2.0,323.130399,0.75,-99999.0,'11133222,11111222,99999999' 
TABS,ioos:station:wmo:42050:1,2001-01-03T00:00:00Z,28.8425,-94.2433,2.0,296.56541,0.335410197,-99999.0,'11133222,11111222,99999999' 
TABS,ioos:station:wmo:42050:1,2001-01-03T00:30:00Z,28.8425,-94.2433,2.0,288.4353266,0.474341649,-99999.0,'11133222,11111222,99999999' 
TABS,ioos:station:wmo:42050:1,2001-01-03T01:00:00Z,28.8425,-94.2433,2.0,315.0003157,0.424264069,-99999.0,'11133222,11111222,99999999' 
TABS,ioos:station:wmo:42050:1,2001-01-03T01:30:00Z,28.8425,-94.2433,2.0,315.0003157,0.424264069,-99999.0,'11133222,11111222,99999999' 
TABS,ioos:station:wmo:42050:1,2001-01-03T02:00:00Z,28.8425,-94.2433,2.0,315.0003157,0.424264069,-99999.0,'11133222,11111222,99999999' 
TABS,ioos:station:wmo:42050:1,2001-01-03T02:30:00Z,28.8425,-94.2433,2.0,296.56541,0.335410197,-99999.0,'11133222,11111222,99999999' 
TABS,ioos:station:wmo:42050:1,2001-01-03T03:00:00Z,28.8425,-94.2433,2.0,288.4353266,0.474341649,-99999.0,'11133222,11111222,99999999' 
TABS,ioos:station:wmo:42050:1,2001-01-03T03:30:00Z,28.8425,-94.2433,2.0,326.0141228,1.073359213,-99999.0,'11133222,11111222,99999999' 
TABS,ioos:station:wmo:42050:1,2001-01-03T04:00:00Z,28.8425,-94.2433,2.0,296.56541,0.670820393,-99999.0,'11133222,11111222,99999999' 
TABS,ioos:station:wmo:42050:1,2001-01-03T04:30:00Z,28.8425,-94.2433,2.0,315.0003157,0.424264069,-99999.0,'11133222,11111222,99999999' 
TABS,ioos:station:wmo:42050:1,2001-01-03T05:00:00Z,28.8425,-94.2433,2.0,333.4352214,0.335410197,-99999.0,'11133222,11111222,99999999' 
TABS,ioos:station:wmo:42050:1,2001-01-03T05:30:00Z,28.8425,-94.2433,2.0,296.56541,0.335410197,-99999.0,'11133222,11111222,99999999' 
TABS,ioos:station:wmo:42050:1,2001-01-03T06:00:00Z,28.8425,-94.2433,2.0,303.6904097,0.540832691,-99999.0,'11133222,11111222,99999999' 
TABS,ioos:station:wmo:42050:1,2001-01-03T06:30:00Z,28.8425,-94.2433,2.0,296.56541,0.335410197,-99999.0,'11133222,11111222,99999999' 
TABS,ioos:station:wmo:42050:1,2001-01-03T07:00:00Z,28.8425,-94.2433,2.0,309.7425188,1.157454103,-99999.0,'11133222,11111222,99999999' 
TABS,ioos:station:wmo:42050:1,2001-01-03T07:30:00Z,28.8425,-94.2433,2.0,306.8702323,0.75,-99999.0,'11133222,11111222,99999999' 
TABS,ioos:station:wmo:42050:1,2001-01-03T08:00:00Z,28.8425,-94.2433,2.0,301.3044712,0.866083137,-99999.0,'11133222,11111222,99999999' 
TABS,ioos:station:wmo:42050:1,2001-01-03T08:30:00Z,28.8425,-94.2433,2.0,284.0366316,0.618465844,-99999.0,'11133222,11111222,99999999' 
TABS,ioos:station:wmo:42050:1,2001-01-03T09:00:00Z,28.8425,-94.2433,2.0,315.0003157,0.424264069,-99999.0,'11133222,11111222,99999999' 
TABS,ioos:station:wmo:42050:1,2001-01-03T09:30:00Z,28.8425,-94.2433,2.0,284.0366316,0.618465844,-99999.0,'11133222,11111222,99999999' 
TABS,ioos:station:wmo:42050:1,2001-01-03T10:00:00Z,28.8425,-94.2433,2.0,333.4352214,0.335410197,-99999.0,'11133222,11111222,99999999' 
TABS,ioos:station:wmo:42050:1,2001-01-03T10:30:00Z,28.8425,-94.2433,2.0,296.56541,0.670820393,-99999.0,'11133222,11111222,99999999' 
TABS,ioos:station:wmo:42050:1,2001-01-03T11:00:00Z,28.8425,-94.2433,2.0,303.6904097,0.540832691,-99999.0,'11133222,11111222,99999999' 
TABS,ioos:station:wmo:42050:1,2001-01-03T11:30:00Z,28.8425,-94.2433,2.0,303.6904097,0.540832691,-99999.0,'11133222,11111222,99999999' 
TABS,ioos:station:wmo:42050:1,2001-01-03T12:00:00Z,28.8425,-94.2433,2.0,315.0003157,0.848528137,-99999.0,'11133222,11111222,99999999' 
TABS,ioos:station:wmo:42050:1,2001-01-03T12:30:00Z,28.8425,-94.2433,2.0,296.56541,0.335410197,-99999.0,'11133222,11111222,99999999' 
TABS,ioos:station:wmo:42050:1,2001-01-03T13:00:00Z,28.8425,-94.2433,2.0,296.56541,0.335410197,-99999.0,'11133222,11111222,99999999' 
TABS,ioos:station:wmo:42050:1,2001-01-03T13:30:00Z,28.8425,-94.2433,2.0,303.6904097,0.540832691,-99999.0,'11133222,11111222,99999999' 
TABS,ioos:station:wmo:42050:1,2001-01-03T14:00:00Z,28.8425,-94.2433,2.0,288.4353266,0.474341649,-99999.0,'11133222,11111222,99999999' 
TABS,ioos:station:wmo:42050:1,2001-01-03T14:30:00Z,28.8425,-94.2433,2.0,288.4353266,0.474341649,-99999.0,'11133222,11111222,99999999' 
TABS,ioos:station:wmo:42050:1,2001-01-03T15:00:00Z,28.8425,-94.2433,2.0,303.6904097,0.540832691,-99999.0,'11133222,11111222,99999999' 
TABS,ioos:station:wmo:42050:1,2001-01-03T15:30:00Z,28.8425,-94.2433,2.0,270.0004209,0.6,-99999.0,'11133222,11111222,99999999' 
TABS,ioos:station:wmo:42050:1,2001-01-03T16:00:00Z,28.8425,-94.2433,2.0,315.0003157,0.424264069,-99999.0,'11133222,11111222,99999999' 
TABS,ioos:station:wmo:42050:1,2001-01-03T16:30:00Z,28.8425,-94.2433,2.0,303.6904097,0.540832691,-99999.0,'11133222,11111222,99999999' 
TABS,ioos:station:wmo:42050:1,2001-01-03T17:00:00Z,28.8425,-94.2433,2.0,270.0004209,0.6,-99999.0,'11133222,11111222,99999999' 
TABS,ioos:station:wmo:42050:1,2001-01-03T17:30:00Z,28.8425,-94.2433,2.0,270.0004209,0.45,-99999.0,'11133222,11111222,99999999' 
TABS,ioos:station:wmo:42050:1,2001-01-03T18:00:00Z,28.8425,-94.2433,2.0,288.4353266,0.474341649,-99999.0,'11133222,11111222,99999999' 
TABS,ioos:station:wmo:42050:1,2001-01-03T18:30:00Z,28.8425,-94.2433,2.0,270.0004209,0.45,-99999.0,'11133222,11111222,99999999' 
TABS,ioos:station:wmo:42050:1,2001-01-03T19:00:00Z,28.8425,-94.2433,2.0,270.0004209,0.45,-99999.0,'11133222,11111222,99999999' 
TABS,ioos:station:wmo:42050:1,2001-01-03T19:30:00Z,28.8425,-94.2433,2.0,270.0004209,0.45,-99999.0,'11133222,11111222,99999999' 
TABS,ioos:station:wmo:42050:1,2001-01-03T20:00:00Z,28.8425,-94.2433,2.0,270.0004209,0.3,-99999.0,'11133222,11111222,99999999' 
TABS,ioos:station:wmo:42050:1,2001-01-03T20:30:00Z,28.8425,-94.2433,2.0,270.0004209,0.45,-99999.0,'11133222,11111222,99999999' 
TABS,ioos:station:wmo:42050:1,2001-01-03T21:00:00Z,28.8425,-94.2433,2.0,270.0004209,0.3,-99999.0,'11133222,11111222,99999999' 
TABS,ioos:station:wmo:42050:1,2001-01-03T21:30:00Z,28.8425,-94.2433,2.0,270.0004209,0.3,-99999.0,'11133222,11111222,99999999' 
TABS,ioos:station:wmo:42050:1,2001-01-03T22:00:00Z,28.8425,-94.2433,2.0,270.0004209,0.15,-99999.0,'11133222,11111222,99999999' 
TABS,ioos:station:wmo:42050:1,2001-01-03T22:30:00Z,28.8425,-94.2433,2.0,270.0004209,0.15,-99999.0,'11133222,11111222,99999999' 
TABS,ioos:station:wmo:42050:1,2001-01-03T23:00:00Z,28.8425,-94.2433,2.0,243.43459,0.335410197,-99999.0,'11133222,11111222,99999999' 
TABS,ioos:station:wmo:42050:1,2001-01-03T23:30:00Z,28.8425,-94.2433,2.0,224.9996843,0.212132034,-99999.0,'11133222,11111222,99999999' 
TABS,ioos:station:wmo:42050:1,2001-01-04T00:00:00Z,28.8425,-94.2433,2.0,243.43459,0.335410197,-99999.0,'11133222,11111222,99999999' 
TABS,ioos:station:wmo:42050:1,2001-01-04T00:30:00Z,28.8425,-94.2433,2.0,243.43459,0.335410197,-99999.0,'11133222,11111222,99999999' 
TABS,ioos:station:wmo:42050:1,2001-01-04T01:00:00Z,28.8425,-94.2433,2.0,224.9996843,0.424264069,-99999.0,'11133222,11111222,99999999' 
TABS,ioos:station:wmo:42050:1,2001-01-04T01:30:00Z,28.8425,-94.2433,2.0,224.9996843,0.212132034,-99999.0,'11133222,11111222,99999999' 
TABS,ioos:station:wmo:42050:1,2001-01-04T02:00:00Z,28.8425,-94.2433,2.0,206.5647786,0.335410197,-99999.0,'11133222,11111222,99999999' 
TABS,ioos:station:wmo:42050:1,2001-01-04T02:30:00Z,28.8425,-94.2433,2.0,224.9996843,0.424264069,-99999.0,'11133222,11111222,99999999' 
TABS,ioos:station:wmo:42050:1,2001-01-04T03:00:00Z,28.8425,-94.2433,2.0,198.4346953,0.474341649,-99999.0,'11133222,11111222,99999999' 
TABS,ioos:station:wmo:42050:1,2001-01-04T03:30:00Z,28.8425,-94.2433,2.0,198.4346953,0.474341649,-99999.0,'11133222,11111222,99999999' 
TABS,ioos:station:wmo:42050:1,2001-01-04T04:00:00Z,28.8425,-94.2433,2.0,198.4346953,0.474341649,-99999.0,'11133222,11111222,99999999' 
TABS,ioos:station:wmo:42050:1,2001-01-04T04:30:00Z,28.8425,-94.2433,2.0,198.4346953,0.474341649,-99999.0,'11133222,11111222,99999999' 
TABS,ioos:station:wmo:42050:1,2001-01-04T05:00:00Z,28.8425,-94.2433,2.0,198.4346953,0.474341649,-99999.0,'11133222,11111222,99999999' 
TABS,ioos:station:wmo:42050:1,2001-01-04T05:30:00Z,28.8425,-94.2433,2.0,206.5647786,0.335410197,-99999.0,'11133222,11111222,99999999' 
TABS,ioos:station:wmo:42050:1,2001-01-04T06:00:00Z,28.8425,-94.2433,2.0,213.6897783,0.540832691,-99999.0,'11133222,11111222,99999999' 
TABS,ioos:station:wmo:42050:1,2001-01-04T06:30:00Z,28.8425,-94.2433,2.0,213.6897783,0.540832691,-99999.0,'11133222,11111222,99999999' 
TABS,ioos:station:wmo:42050:1,2001-01-04T07:00:00Z,28.8425,-94.2433,2.0,224.9996843,0.424264069,-99999.0,'11133222,11111222,99999999' 
TABS,ioos:station:wmo:42050:1,2001-01-04T07:30:00Z,28.8425,-94.2433,2.0,206.5647786,0.670820393,-99999.0,'11133222,11111222,99999999' 
TABS,ioos:station:wmo:42050:1,2001-01-04T08:00:00Z,28.8425,-94.2433,2.0,213.6897783,0.540832691,-99999.0,'11133222,11111222,99999999' 
TABS,ioos:station:wmo:42050:1,2001-01-04T08:30:00Z,28.8425,-94.2433,2.0,216.869601,0.75,-99999.0,'11133222,11111222,99999999' 
TABS,ioos:station:wmo:42050:1,2001-01-04T09:00:00Z,28.8425,-94.2433,2.0,224.9996843,0.848528137,-99999.0,'11133222,11111222,99999999' 
TABS,ioos:station:wmo:42050:1,2001-01-04T09:30:00Z,28.8425,-94.2433,2.0,233.1297677,0.75,-99999.0,'11133222,11111222,99999999' 
TABS,ioos:station:wmo:42050:1,2001-01-04T10:00:00Z,28.8425,-94.2433,2.0,216.869601,0.75,-99999.0,'11133222,11111222,99999999' 
TABS,ioos:station:wmo:42050:1,2001-01-04T10:30:00Z,28.8425,-94.2433,2.0,224.9996843,0.636396103,-99999.0,'11133222,11111222,99999999' 
TABS,ioos:station:wmo:42050:1,2001-01-04T11:00:00Z,28.8425,-94.2433,2.0,191.4585151,0.755049667,-99999.0,'11133222,11111222,99999999' 
TABS,ioos:station:wmo:42050:1,2001-01-04T11:30:00Z,28.8425,-94.2433,2.0,179.9997895,0.74,-99999.0,'11133222,11111222,99999999' 
TABS,ioos:station:wmo:42050:1,2001-01-04T12:00:00Z,28.8425,-94.2433,2.0,179.9997895,0.89,-99999.0,'11133222,11111222,99999999' 
TABS,ioos:station:wmo:42050:1,2001-01-04T12:30:00Z,28.8425,-94.2433,2.0,179.9997895,0.89,-99999.0,'11133222,11111222,99999999' 
TABS,ioos:station:wmo:42050:1,2001-01-04T13:00:00Z,28.8425,-94.2433,2.0,179.9997895,0.89,-99999.0,'11133222,11111222,99999999' 
TABS,ioos:station:wmo:42050:1,2001-01-04T13:30:00Z,28.8425,-94.2433,2.0,179.9997895,0.89,-99999.0,'11133222,11111222,99999999' 
TABS,ioos:station:wmo:42050:1,2001-01-04T14:00:00Z,28.8425,-94.2433,2.0,179.9997895,0.89,-99999.0,'11133222,11111222,99999999' 
TABS,ioos:station:wmo:42050:1,2001-01-04T14:30:00Z,28.8425,-94.2433,2.0,179.9997895,1.04,-99999.0,'11133222,11111222,99999999' 
TABS,ioos:station:wmo:42050:1,2001-01-04T15:00:00Z,28.8425,-94.2433,2.0,170.4331259,0.902551938,-99999.0,'11133222,11111222,99999999' 
TABS,ioos:station:wmo:42050:1,2001-01-04T15:30:00Z,28.8425,-94.2433,2.0,168.541064,0.755049667,-99999.0,'11133222,11111222,99999999' 
TABS,ioos:station:wmo:42050:1,2001-01-04T16:00:00Z,28.8425,-94.2433,2.0,165.9635789,0.618465844,-99999.0,'11133222,11111222,99999999' 
TABS,ioos:station:wmo:42050:1,2001-01-04T16:30:00Z,28.8425,-94.2433,2.0,179.9997895,0.6,-99999.0,'11133222,11111222,99999999' 
TABS,ioos:station:wmo:42050:1,2001-01-04T17:00:00Z,28.8425,-94.2433,2.0,153.4348005,0.335410197,-99999.0,'11133222,11111222,99999999' 